Location: Rancho Del Sol Observatory
(38.7214°N, 120.6350°W)
Time: 11:41:37
(UTC-08:00)

Courier 1B Rocket - Pass Details

Date: 01 February 2020
Orbit: 920 x 1202 km, 28.2° (Epoch: 19 February)

Event Time Altitude Azimuth Distance (km) Brightness Sun altitude
Rises 14:00:55 0° 260° (W) 3,942 8.7 29.1°
Reaches altitude 10° 14:05:13 10° 238° (WSW) 2,918 8.6 28.7°
Maximum altitude 14:08:49 15° 207° (SSW) 2,536 9.2 28.3°
Drops below altitude 10° 14:12:19 10° 176° (S) 2,804 8.4 27.9°
Sets 14:16:18 0° 153° (SSE) 3,692 8.4 27.5°
